Time,TemperatureF,DewpointF,PressureIn,WindDirection,WindDirectionDegrees,WindSpeedMPH,WindSpeedGustMPH,Humidity,HourlyPrecipIn,Conditions,Clouds,dailyrainin,SolarRadiationWatts/m^2,SoftwareType,DateUTC
2013-01-23 00:22:00,22.0,17.0,-100.00,ESE,110,0.0,3.0,82,0.00,,,0.00,0.000000,,2013-01-23 07:22:00,
2013-01-23 00:33:00,22.0,17.0,-100.00,ESE,110,0.0,3.0,82,0.00,,,0.00,0.000000,,2013-01-23 07:33:00,
2013-01-23 00:42:00,22.0,17.0,-100.00,ESE,110,0.0,3.0,82,0.00,,,0.00,0.000000,,2013-01-23 07:42:00,
2013-01-23 00:52:00,22.0,17.0,-100.00,ESE,110,0.0,3.0,82,0.00,,,0.00,0.000000,,2013-01-23 07:52:00,
2013-01-23 01:22:00,22.0,16.0,-100.00,South,178,0.0,3.0,76,0.00,,,0.00,0.000000,,2013-01-23 08:22:00,
2013-01-23 01:33:00,22.0,16.0,-100.00,South,178,0.0,3.0,76,0.00,,,0.00,0.000000,,2013-01-23 08:33:00,
2013-01-23 01:42:00,22.0,16.0,-100.00,South,178,0.0,3.0,76,0.00,,,0.00,0.000000,,2013-01-23 08:42:00,
2013-01-23 01:52:00,22.0,16.0,-100.00,South,178,0.0,3.0,76,0.00,,,0.00,0.000000,,2013-01-23 08:52:00,
2013-01-23 02:22:00,23.0,15.0,-100.00,SW,214,0.0,2.0,71,0.00,,,0.00,0.000000,,2013-01-23 09:22:00,
2013-01-23 02:32:00,23.0,15.0,-100.00,SW,214,0.0,2.0,71,0.00,,,0.00,0.000000,,2013-01-23 09:32:00,
2013-01-23 02:43:00,23.0,15.0,-100.00,SW,214,0.0,2.0,71,0.00,,,0.00,0.000000,,2013-01-23 09:43:00,
2013-01-23 02:52:00,23.0,15.0,-100.00,SW,214,0.0,2.0,71,0.00,,,0.00,0.000000,,2013-01-23 09:52:00,
2013-01-23 03:22:00,23.0,15.0,-100.00,East,89,0.0,2.0,71,0.00,,,-99.99,0.000000,,2013-01-23 10:22:00,
2013-01-23 03:32:00,23.0,15.0,-100.00,East,89,0.0,2.0,71,0.00,,,-99.99,0.000000,,2013-01-23 10:32:00,
2013-01-23 03:42:00,23.0,15.0,-100.00,East,89,0.0,2.0,71,0.00,,,-99.99,0.000000,,2013-01-23 10:42:00,
2013-01-23 03:52:00,23.0,15.0,-100.00,East,89,0.0,2.0,71,0.00,,,-99.99,0.000000,,2013-01-23 10:52:00,
2013-01-23 04:22:00,21.0,16.0,-100.00,East,94,2.0,3.0,81,0.00,,,0.00,0.000000,,2013-01-23 11:22:00,
2013-01-23 04:33:00,21.0,16.0,-100.00,East,94,2.0,3.0,81,0.00,,,0.00,0.000000,,2013-01-23 11:33:00,
2013-01-23 04:42:00,21.0,16.0,-100.00,East,94,2.0,3.0,81,0.00,,,0.00,0.000000,,2013-01-23 11:42:00,
2013-01-23 04:52:00,21.0,16.0,-100.00,East,94,2.0,3.0,81,0.00,,,0.00,0.000000,,2013-01-23 11:52:00,
2013-01-23 05:22:00,20.0,16.0,-100.00,ESE,113,1.0,4.0,83,0.00,,,0.00,0.000000,,2013-01-23 12:22:00,
2013-01-23 05:33:00,20.0,16.0,-100.00,ESE,113,1.0,4.0,83,0.00,,,0.00,0.000000,,2013-01-23 12:33:00,
2013-01-23 05:42:00,20.0,16.0,-100.00,ESE,113,1.0,4.0,83,0.00,,,0.00,0.000000,,2013-01-23 12:42:00,
2013-01-23 05:52:00,20.0,16.0,-100.00,ESE,113,1.0,4.0,83,0.00,,,0.00,0.000000,,2013-01-23 12:52:00,
2013-01-23 06:23:00,23.0,16.0,-100.00,East,90,2.0,4.0,73,0.00,,,0.00,0.000000,,2013-01-23 13:23:00,
2013-01-23 06:33:00,23.0,16.0,-100.00,East,90,2.0,4.0,73,0.00,,,0.00,0.000000,,2013-01-23 13:33:00,
2013-01-23 06:42:00,23.0,16.0,-100.00,East,90,2.0,4.0,73,0.00,,,0.00,0.000000,,2013-01-23 13:42:00,
2013-01-23 06:52:00,23.0,16.0,-100.00,East,90,2.0,4.0,73,0.00,,,0.00,0.000000,,2013-01-23 13:52:00,
2013-01-23 07:23:00,23.0,15.0,-100.00,ESE,105,1.0,2.0,70,0.00,,,0.00,0.000000,,2013-01-23 14:23:00,
2013-01-23 07:33:00,23.0,15.0,-100.00,ESE,105,1.0,2.0,70,0.00,,,0.00,0.000000,,2013-01-23 14:33:00,
2013-01-23 07:42:00,23.0,15.0,-100.00,ESE,105,1.0,2.0,70,0.00,,,0.00,0.000000,,2013-01-23 14:42:00,
2013-01-23 07:53:00,23.0,15.0,-100.00,ESE,105,1.0,2.0,70,0.00,,,0.00,0.000000,,2013-01-23 14:53:00,
2013-01-23 08:22:00,20.0,15.0,-100.00,East,98,3.0,4.0,81,0.00,,,0.00,0.000000,,2013-01-23 15:22:00,
2013-01-23 08:33:00,20.0,15.0,-100.00,East,98,3.0,4.0,81,0.00,,,0.00,0.000000,,2013-01-23 15:33:00,
2013-01-23 08:43:00,20.0,15.0,-100.00,East,98,3.0,4.0,81,0.00,,,0.00,0.000000,,2013-01-23 15:43:00,
2013-01-23 08:52:00,20.0,15.0,-100.00,East,98,3.0,4.0,81,0.00,,,0.00,0.000000,,2013-01-23 15:52:00,
2013-01-23 09:22:00,20.0,15.0,-100.00,East,100,3.0,5.0,80,0.00,,,0.00,10.000000,,2013-01-23 16:22:00,
2013-01-23 09:32:00,20.0,15.0,-100.00,East,100,3.0,5.0,80,0.00,,,0.00,10.000000,,2013-01-23 16:32:00,
2013-01-23 09:42:00,20.0,15.0,-100.00,East,100,3.0,5.0,80,0.00,,,0.00,10.000000,,2013-01-23 16:42:00,
2013-01-23 09:52:00,20.0,15.0,-100.00,East,100,3.0,5.0,80,0.00,,,0.00,10.000000,,2013-01-23 16:52:00,
2013-01-23 10:22:00,23.0,16.0,-100.00,South,181,1.0,5.0,74,0.00,,,-99.99,59.000000,,2013-01-23 17:22:00,
2013-01-23 10:33:00,23.0,16.0,-100.00,South,181,1.0,5.0,74,0.00,,,-99.99,59.000000,,2013-01-23 17:33:00,
2013-01-23 10:42:00,23.0,16.0,-100.00,South,181,1.0,5.0,74,0.00,,,-99.99,59.000000,,2013-01-23 17:42:00,
2013-01-23 10:52:00,23.0,16.0,-100.00,South,181,1.0,5.0,74,0.00,,,-99.99,59.000000,,2013-01-23 17:52:00,
2013-01-23 11:23:00,29.0,18.0,-100.00,East,89,1.0,3.0,62,0.00,,,0.00,122.000000,,2013-01-23 18:23:00,
2013-01-23 11:33:00,29.0,18.0,-100.00,East,89,1.0,3.0,62,0.00,,,0.00,122.000000,,2013-01-23 18:33:00,
2013-01-23 11:43:00,29.0,18.0,-100.00,East,89,1.0,3.0,62,0.00,,,0.00,122.000000,,2013-01-23 18:43:00,
2013-01-23 11:52:00,29.0,18.0,-100.00,East,89,1.0,3.0,62,0.00,,,0.00,122.000000,,2013-01-23 18:52:00,
2013-01-23 12:22:00,32.0,19.0,-100.00,East,93,1.0,4.0,59,0.00,,,0.00,155.000000,,2013-01-23 19:22:00,
2013-01-23 12:33:00,32.0,19.0,-100.00,East,93,1.0,4.0,59,0.00,,,0.00,155.000000,,2013-01-23 19:33:00,
2013-01-23 13:23:00,36.0,18.0,-100.00,South,184,0.0,4.0,48,0.00,,,0.00,231.000000,,2013-01-23 20:23:00,
2013-01-23 14:22:00,35.0,15.0,-100.00,WNW,298,2.0,5.0,44,-99.99,,,-99.99,201.000000,,2013-01-23 21:22:00,
2013-01-23 14:33:00,35.0,15.0,-100.00,WNW,298,2.0,5.0,44,-99.99,,,-99.99,201.000000,,2013-01-23 21:33:00,
2013-01-23 14:42:00,35.0,15.0,-100.00,WNW,298,2.0,5.0,44,-99.99,,,-99.99,201.000000,,2013-01-23 21:42:00,
2013-01-23 14:52:00,35.0,15.0,-100.00,WNW,298,2.0,5.0,44,-99.99,,,-99.99,201.000000,,2013-01-23 21:52:00,
2013-01-23 15:23:00,30.0,19.0,-100.00,ENE,65,3.0,6.0,63,0.00,,,0.00,84.000000,,2013-01-23 22:23:00,
2013-01-23 15:33:00,30.0,19.0,-100.00,ENE,65,3.0,6.0,63,0.00,,,0.00,84.000000,,2013-01-23 22:33:00,
2013-01-23 15:42:00,30.0,19.0,-100.00,ENE,65,3.0,6.0,63,0.00,,,0.00,84.000000,,2013-01-23 22:42:00,
2013-01-23 15:52:00,30.0,19.0,-100.00,ENE,65,3.0,6.0,63,0.00,,,0.00,84.000000,,2013-01-23 22:52:00,
2013-01-23 16:22:00,31.0,19.0,-100.00,West,276,1.0,6.0,61,0.00,,,0.00,42.000000,,2013-01-23 23:22:00,
2013-01-23 16:33:00,31.0,19.0,-100.00,West,276,1.0,6.0,61,0.00,,,0.00,42.000000,,2013-01-23 23:33:00,
2013-01-23 16:42:00,31.0,19.0,-100.00,West,276,1.0,6.0,61,0.00,,,0.00,42.000000,,2013-01-23 23:42:00,
2013-01-23 16:52:00,31.0,19.0,-100.00,West,276,1.0,6.0,61,0.00,,,0.00,42.000000,,2013-01-23 23:52:00,
2013-01-23 17:22:00,29.0,20.0,-100.00,East,92,1.0,4.0,68,0.00,,,0.00,30.000000,,2013-01-24 00:22:00,
2013-01-23 17:32:00,29.0,20.0,-100.00,East,92,1.0,4.0,68,0.00,,,0.00,30.000000,,2013-01-24 00:32:00,
2013-01-23 17:42:00,29.0,20.0,-100.00,East,92,1.0,4.0,68,0.00,,,0.00,30.000000,,2013-01-24 00:42:00,
2013-01-23 17:52:00,29.0,20.0,-100.00,East,92,1.0,4.0,68,0.00,,,0.00,30.000000,,2013-01-24 00:52:00,
2013-01-23 18:22:00,30.0,19.0,-100.00,East,97,2.0,5.0,64,0.00,,,0.00,7.000000,,2013-01-24 01:22:00,
2013-01-23 18:33:00,30.0,19.0,-100.00,East,97,2.0,5.0,64,0.00,,,0.00,7.000000,,2013-01-24 01:33:00,
2013-01-23 18:42:00,30.0,19.0,-100.00,East,97,2.0,5.0,64,0.00,,,0.00,7.000000,,2013-01-24 01:42:00,
2013-01-23 18:52:00,30.0,19.0,-100.00,East,97,2.0,5.0,64,0.00,,,0.00,7.000000,,2013-01-24 01:52:00,
2013-01-23 19:22:00,31.0,19.0,-100.00,ESE,109,1.0,8.0,60,0.00,,,0.00,0.000000,,2013-01-24 02:22:00,
2013-01-23 19:33:00,31.0,19.0,-100.00,ESE,109,1.0,8.0,60,0.00,,,0.00,0.000000,,2013-01-24 02:33:00,
2013-01-23 19:42:00,31.0,19.0,-100.00,ESE,109,1.0,8.0,60,0.00,,,0.00,0.000000,,2013-01-24 02:42:00,
2013-01-23 19:52:00,31.0,19.0,-100.00,ESE,109,1.0,8.0,60,0.00,,,0.00,0.000000,,2013-01-24 02:52:00,
2013-01-23 20:22:00,33.0,28.0,-100.00,ENE,78,2.0,11.0,80,0.00,,,0.00,0.000000,,2013-01-24 03:22:00,
2013-01-23 20:32:00,33.0,28.0,-100.00,ENE,78,2.0,11.0,80,0.00,,,0.00,0.000000,,2013-01-24 03:32:00,
2013-01-23 20:42:00,33.0,28.0,-100.00,ENE,78,2.0,11.0,80,0.00,,,0.00,0.000000,,2013-01-24 03:42:00,
2013-01-23 20:52:00,33.0,28.0,-100.00,ENE,78,2.0,11.0,80,0.00,,,0.00,0.000000,,2013-01-24 03:52:00,
2013-01-23 21:22:00,32.0,23.0,-100.00,South,179,3.0,9.0,69,0.00,,,0.00,0.000000,,2013-01-24 04:22:00,
2013-01-23 21:32:00,32.0,23.0,-100.00,South,179,3.0,9.0,69,0.00,,,0.00,0.000000,,2013-01-24 04:32:00,
2013-01-23 21:42:00,32.0,23.0,-100.00,South,179,3.0,9.0,69,0.00,,,0.00,0.000000,,2013-01-24 04:42:00,
2013-01-23 21:52:00,32.0,23.0,-100.00,South,179,3.0,9.0,69,0.00,,,0.00,0.000000,,2013-01-24 04:52:00,
2013-01-23 22:22:00,35.0,28.0,-100.00,SE,140,0.0,17.0,76,0.00,,,0.00,0.000000,,2013-01-24 05:22:00,
2013-01-23 22:32:00,35.0,28.0,-100.00,SE,140,0.0,17.0,76,0.00,,,0.00,0.000000,,2013-01-24 05:32:00,
2013-01-23 22:42:00,35.0,28.0,-100.00,SE,140,0.0,17.0,76,0.00,,,0.00,0.000000,,2013-01-24 05:42:00,
2013-01-23 22:52:00,35.0,28.0,-100.00,SE,140,0.0,17.0,76,0.00,,,0.00,0.000000,,2013-01-24 05:52:00,
2013-01-23 23:22:00,31.0,30.0,-100.00,East,94,3.0,6.0,95,0.00,,,0.00,0.000000,,2013-01-24 06:22:00,
2013-01-23 23:32:00,31.0,30.0,-100.00,East,94,3.0,6.0,95,0.00,,,0.00,0.000000,,2013-01-24 06:32:00,
2013-01-23 23:42:00,31.0,30.0,-100.00,East,94,3.0,6.0,95,0.00,,,0.00,0.000000,,2013-01-24 06:42:00,
2013-01-23 23:52:00,31.0,30.0,-100.00,East,94,3.0,6.0,95,0.00,,,0.00,0.000000,,2013-01-24 06:52:00,